Terug naar catalogus

GLOBALSTAR M092

ActiefCommunicatieLEO
NORAD 38043·PAYLOAD·🇺🇸 United States

Gelanceerd Dec 28, 2011 vanaf Baikonur Cosmodrome

Loading…

Volgende Passages (komende 24 uur)

TLE

VersSource: Space-Track

Epoch: Sep 14, 2026, 11:50 UTC

1 38043U 11080D   26257.49336951 -.00000135  00000-0 -17363-3 0  9994
2 38043  52.0073 153.0637 0000720  69.8501 101.1432 12.62265999679320

Volg GLOBALSTAR M092 in realtime met AllMySat

Download on the App Store